Wind_Speed
26 26 26 27 28 30 30 31 32 33 34 35 35 34 35 35 35 36 36 36 36 35 35 34 34 34 35 35 36 36 36 36 36 37 37 37 37 37 37 37 38 39 40 40
26 26 26 27 28 29 30 31 32 33 33 35 35 35 35 35 36 36 36 36 36 37 37 36 36 36 36 36 37 36 36 37 37 37 37 37 37 37 37 37 38 38 39 40
25 25 26 27 28 28 28 30 30 31 32 33 35 36 35 35 36 36 36 37 37 37 37 37 37 37 37 38 37 36 37 37 38 38 38 38 38 39 38 38 38 38 39 39
26 26 26 26 27 27 28 28 30 30 31 32 32 35 34 34 35 36 36 36 36 37 37 37 37 37 38 38 38 38 38 38 38 39 39 38 39 39 39 39 39 38 38 39
26 26 27 26 26 27 28 28 29 30 31 32 31 33 33 33 33 33 34 35 35 35 36 37 36 37 38 38 38 38 38 38 38 39 39 39 39 39 38 38 38 39 39 39
26 26 27 27 27 28 28 28 29 30 31 32 30 32 33 31 31 32 33 34 35 35 36 36 36 36 37 37 38 38 38 38 39 39 39 39 39 39 39 38 38 38 38 39
27 27 27 27 28 28 28 28 29 30 30 31 30 33 32 31 30 31 32 33 34 34 35 35 36 36 37 37 38 38 39 39 39 39 39 39 40 39 39 39 39 38 38 39
27 28 28 28 28 28 27 28 29 30 31 30 30 31 30 30 31 30 30 31 32 33 34 34 35 36 36 37 37 38 39 39 39 39 39 39 39 39 39 39 39 39 39 39
27 28 28 28 28 28 28 29 29 30 31 31 31 30 29 29 31 31 30 31 31 32 32 33 34 34 36 36 37 37 38 38 38 39 39 39 39 40 40 39 38 38 38 38
27 28 28 28 28 27 28 28 29 30 31 31 31 30 28 28 29 30 30 31 31 31 32 33 33 34 35 35 36 37 37 37 38 38 39 39 39 39 39 39 39 38 38 38
27 28 28 28 28 27 27 28 29 30 31 31 32 30 28 27 29 30 31 31 31 31 31 33 34 34 34 34 35 36 37 37 38 38 39 39 39 39 39 39 39 39 39 38
27 28 27 27 27 27 28 28 28 29 30 31 31 30 28 28 29 29 30 31 31 31 31 32 33 33 34 34 34 35 36 37 37 38 38 39 39 39 39 39 39 39 39 39
27 27 27 26 26 26 27 27 28 28 29 29 29 28 28 29 29 30 30 30 31 31 32 32 32 32 33 33 34 34 36 36 37 37 38 38 38 38 38 38 38 39 39 39
27 27 27 27 27 27 27 27 28 28 29 29 28 27 26 27 29 30 30 30 30 31 31 32 33 33 33 34 34 34 35 35 36 36 37 37 37 37 37 37 38 38 39 39
28 28 28 27 27 27 28 28 29 29 29 30 29 28 26 27 28 29 29 29 29 30 30 31 32 33 33 33 33 34 34 34 35 35 36 36 36 36 37 37 37 37 37 38
28 29 29 29 28 28 29 29 29 29 29 30 30 29 28 29 29 29 29 29 29 30 30 30 30 31 32 33 33 33 33 34 34 34 35 36 36 36 36 36 37 37 37 37
29 29 30 30 29 29 30 28 29 30 30 31 31 30 30 30 30 30 30 30 29 29 29 29 30 31 31 32 33 33 34 34 34 34 34 34 35 36 36 36 37 37 37 37
30 30 30 30 30 30 29 28 29 30 30 31 31 31 31 31 30 30 30 30 30 30 30 30 30 30 31 32 33 33 33 33 33 34 33 33 33 34 35 36 36 36 37 37
29 29 29 29 30 30 28 28 28 29 30 30 31 31 31 31 31 30 30 30 30 30 30 31 31 31 31 32 32 32 33 33 33 33 33 33 33 34 34 35 35 36 36 37
27 28 28 29 29 29 28 28 28 29 30 29 29 30 30 30 30 29 30 29 29 29 30 31 31 31 31 32 32 32 32 33 33 34 34 34 34 34 35 35 35 36 36 37
26 26 27 28 28 27 27 26 27 28 28 28 29 29 29 29 29 29 29 29 29 29 30 31 32 32 32 31 31 31 32 33 33 34 34 35 35 35 35 35 35 36 36 36
24 25 25 26 27 25 25 26 28 28 28 28 28 28 29 29 28 28 29 29 29 29 29 30 30 30 31 31 31 31 31 32 32 32 33 33 34 34 34 34 34 34 35 34
24 24 25 25 25 26 27 28 28 28 28 28 27 27 27 27 28 28 29 29 29 29 29 29 30 30 30 30 30 31 31 31 31 31 31 32 33 33 33 33 33 33 33 34
25 26 27 26 25 26 27 28 28 28 27 27 27 27 27 27 28 28 28 28 28 28 28 29 29 29 29 29 29 29 29 30 30 30 30 31 31 31 31 32 32 32 32 32
25 27 27 27 27 26 26 27 27 28 28 27 27 27 27 26 27 27 27 28 28 28 28 29 28 28 29 28 28 29 29 29 29 29 29 29 29 29 30 30 31 31 31 31
25 26 26 26 25 26 25 26 26 26 27 27 27 27 27 27 27 27 27 27 28 28 28 28 27 27 27 27 27 27 28 28 28 28 29 28 29 29 29 30 30 30 31 31
Wind_Direction
269 266 264 262 261 260 257 255 254 254 252 252 252 250 249 248 248 249 250 251 251 252 252 252 253 254 255 256 257 259 259 259 260 261 263 262 262 262 263 263 261 259 257 255
268 266 266 264 262 262 260 257 256 255 253 252 251 250 250 250 249 250 251 252 253 253 254 254 255 256 257 258 259 260 260 260 261 262 262 263 262 263 263 262 260 259 257 255
268 268 266 265 263 264 262 259 257 257 254 253 252 250 250 250 251 251 252 253 254 255 255 256 256 257 257 258 259 260 260 261 262 262 262 263 262 262 261 260 259 259 257 255
268 268 267 266 265 264 264 262 259 258 257 256 254 254 251 251 251 252 252 253 254 255 256 257 257 257 258 259 259 259 259 260 261 262 262 262 263 262 260 259 259 258 257 255
269 269 268 267 267 266 267 264 261 259 259 257 255 255 252 252 251 252 252 253 254 255 256 256 257 258 258 260 260 259 259 261 262 263 263 262 262 262 260 259 259 259 258 256
269 269 268 268 268 267 266 264 262 260 259 259 256 256 255 253 252 252 253 254 255 256 257 258 258 258 259 260 261 261 260 261 263 263 263 263 262 262 260 259 259 259 258 257
269 269 269 268 268 266 264 263 263 262 261 261 259 259 258 255 253 254 255 256 256 257 258 259 259 259 260 260 260 261 261 261 262 262 262 263 262 261 260 260 260 259 259 258
270 270 269 268 268 267 263 260 260 262 262 264 262 262 260 257 255 255 255 256 258 259 260 260 261 260 260 261 262 262 262 262 261 261 261 262 262 260 261 261 261 260 260 259
272 271 270 270 269 265 262 259 259 261 262 263 263 262 260 258 256 256 256 257 259 261 261 261 262 262 261 262 262 263 263 263 262 261 260 261 260 260 260 260 260 259 258 258
273 272 270 269 268 265 261 259 257 257 260 263 265 263 261 260 257 258 259 259 260 263 263 263 263 263 263 264 263 263 263 263 262 261 260 261 260 259 258 258 258 257 258 259
276 275 272 269 267 263 260 259 257 258 259 262 264 265 264 263 260 260 261 260 261 263 264 264 264 264 265 265 264 264 264 263 262 261 261 260 260 260 258 257 257 258 259 259
276 276 275 272 267 263 260 258 258 259 260 260 263 264 263 264 263 262 263 263 264 264 264 264 264 265 265 265 265 264 265 264 263 262 260 261 261 260 259 258 257 257 258 258
276 275 275 273 269 264 262 258 259 259 260 260 262 265 264 263 263 262 263 264 264 264 265 265 265 265 265 264 265 265 265 265 264 262 260 260 261 260 260 259 258 257 258 259
276 275 273 272 271 268 265 261 259 259 260 262 263 265 264 263 261 261 263 265 265 265 266 266 266 267 266 265 264 265 265 266 264 262 261 261 260 259 259 258 259 259 259 260
275 274 272 271 269 266 264 261 259 261 263 264 265 265 266 266 264 262 264 265 265 266 267 268 267 267 266 266 265 264 264 264 264 262 261 260 260 258 258 258 258 259 260 261
272 272 271 270 268 266 264 262 262 262 264 265 265 265 268 269 266 265 266 267 267 268 269 270 269 267 265 265 266 265 264 264 263 262 261 260 259 259 258 258 260 261 261 262
270 270 271 271 270 267 265 266 265 264 264 266 268 270 270 270 268 266 267 269 268 269 270 270 268 267 266 266 265 265 263 263 262 262 262 261 259 258 259 260 261 262 263 264
269 269 269 270 269 269 271 269 267 266 265 267 269 270 270 270 270 267 266 267 268 269 269 270 270 269 268 268 265 262 262 261 260 260 260 261 261 260 260 261 263 263 264 265
268 268 268 268 269 270 271 271 271 269 268 268 271 271 270 270 270 268 267 268 269 269 269 269 269 270 269 268 266 263 262 260 260 259 259 261 262 263 263 264 266 266 266 266
268 268 267 267 267 270 273 274 274 272 270 269 269 269 270 270 270 268 267 269 269 269 269 268 268 270 270 267 265 263 262 262 261 260 260 262 264 264 264 265 266 267 267 267
268 268 268 268 268 269 273 276 275 274 274 271 270 270 270 270 269 267 267 268 270 270 269 269 269 270 269 267 265 264 263 263 262 261 261 263 264 265 266 266 266 267 267 268
267 268 270 270 267 272 275 274 274 275 275 274 273 271 270 268 268 267 268 269 271 271 271 270 270 270 269 267 266 266 264 263 262 262 263 264 266 267 267 267 267 266 266 268
265 267 269 271 271 270 271 273 275 275 275 274 273 272 271 270 270 270 269 270 270 271 271 271 271 270 270 268 266 266 265 264 264 264 265 266 266 267 268 268 268 267 267 267
266 266 269 271 272 274 274 274 274 274 274 274 274 272 272 272 272 272 270 270 269 269 269 269 270 270 268 266 266 267 266 265 265 265 267 267 268 269 270 269 269 268 267 267
270 271 272 273 274 275 274 274 273 273 273 274 275 273 272 273 273 272 272 270 268 268 269 270 271 269 268 267 266 266 267 267 266 266 267 268 269 269 270 269 269 268 268 269
273 274 276 277 276 276 275 273 273 273 272 273 273 272 271 272 273 273 271 270 269 269 269 270 270 270 268 267 266 266 267 268 267 266 267 267 268 269 269 270 270 269 268 268
Height
5706 5707 5707 5707 5707 5707 5708 5709 5710 5712 5713 5714 5715 5717 5719 5721 5723 5725 5726 5728 5730 5731 5733 5734 5736 5737 5738 5739 5740 5740 5741 5742 5743 5744 5744 5744 5745 5745 5745 5745 5746 5747 5748 5749
5699 5699 5700 5699 5699 5699 5699 5700 5701 5702 5704 5705 5706 5708 5710 5712 5714 5715 5717 5718 5720 5722 5724 5725 5727 5728 5728 5729 5730 5731 5732 5732 5733 5734 5734 5734 5735 5735 5735 5735 5735 5736 5737 5739
5691 5692 5691 5691 5691 5692 5692 5692 5692 5693 5694 5695 5696 5698 5701 5703 5704 5706 5708 5709 5710 5712 5714 5715 5717 5718 5719 5720 5721 5721 5722 5722 5723 5723 5724 5724 5724 5724 5724 5725 5725 5726 5727 5729
5684 5684 5684 5684 5684 5683 5684 5684 5684 5685 5685 5686 5688 5688 5692 5693 5695 5697 5698 5699 5701 5702 5704 5705 5706 5707 5709 5710 5711 5711 5712 5712 5713 5713 5713 5713 5714 5714 5714 5715 5715 5716 5717 5718
5677 5677 5676 5676 5677 5676 5676 5676 5676 5676 5676 5678 5679 5679 5683 5684 5686 5688 5689 5690 5691 5692 5694 5695 5696 5697 5698 5699 5700 5701 5701 5702 5702 5702 5703 5703 5703 5704 5704 5705 5706 5707 5707 5708
5669 5669 5669 5669 5669 5669 5668 5668 5668 5668 5668 5670 5672 5672 5674 5676 5678 5679 5680 5681 5682 5683 5684 5685 5686 5687 5688 5689 5690 5691 5691 5691 5692 5692 5692 5693 5693 5694 5694 5695 5696 5697 5698 5699
5661 5661 5661 5661 5661 5661 5661 5661 5661 5660 5660 5662 5664 5663 5666 5668 5669 5670 5671 5672 5672 5674 5675 5676 5677 5678 5678 5679 5680 5680 5680 5681 5681 5681 5681 5682 5683 5684 5684 5685 5686 5687 5688 5690
5653 5654 5654 5653 5653 5653 5653 5654 5654 5654 5654 5655 5655 5656 5659 5660 5660 5661 5662 5663 5663 5665 5665 5666 5667 5668 5668 5669 5669 5669 5670 5670 5670 5670 5671 5672 5672 5673 5675 5676 5676 5677 5679 5680
5645 5646 5646 5646 5645 5645 5645 5646 5647 5646 5645 5646 5647 5649 5651 5652 5652 5653 5654 5654 5655 5656 5656 5657 5657 5658 5658 5659 5659 5659 5659 5659 5659 5660 5660 5661 5662 5663 5664 5666 5667 5668 5669 5670
5637 5637 5638 5637 5637 5638 5638 5638 5638 5638 5637 5638 5639 5641 5643 5644 5644 5644 5645 5645 5646 5647 5647 5648 5648 5648 5648 5649 5649 5649 5649 5649 5649 5650 5650 5651 5652 5653 5654 5655 5657 5658 5659 5661
5629 5629 5630 5630 5629 5630 5630 5631 5630 5630 5630 5631 5630 5635 5635 5636 5636 5636 5636 5636 5637 5638 5638 5639 5639 5639 5639 5639 5639 5639 5639 5639 5639 5639 5640 5641 5641 5642 5644 5645 5646 5648 5649 5651
5621 5621 5621 5622 5622 5621 5621 5622 5623 5623 5623 5623 5623 5628 5627 5627 5627 5627 5627 5628 5628 5629 5629 5629 5629 5629 5629 5629 5629 5629 5629 5629 5629 5629 5630 5630 5631 5632 5633 5635 5636 5638 5639 5641
5614 5613 5613 5613 5615 5614 5614 5614 5615 5615 5615 5614 5615 5619 5619 5619 5618 5618 5618 5619 5619 5620 5620 5620 5620 5620 5620 5620 5620 5620 5619 5619 5619 5619 5620 5620 5621 5622 5623 5624 5626 5628 5629 5630
5605 5605 5606 5607 5606 5605 5606 5607 5607 5607 5606 5607 5608 5609 5610 5610 5609 5609 5609 5610 5610 5610 5610 5610 5610 5610 5610 5610 5610 5610 5610 5610 5609 5610 5610 5610 5611 5612 5613 5614 5616 5618 5619 5620
5597 5597 5597 5598 5598 5597 5597 5598 5599 5599 5599 5599 5601 5601 5602 5601 5600 5600 5600 5600 5601 5601 5601 5601 5600 5601 5601 5601 5601 5600 5600 5600 5600 5600 5600 5601 5601 5602 5604 5605 5606 5608 5609 5610
5589 5589 5589 5589 5589 5588 5588 5590 5590 5591 5591 5591 5591 5593 5594 5592 5591 5591 5591 5591 5592 5592 5592 5592 5591 5591 5591 5591 5591 5591 5591 5591 5590 5590 5591 5591 5592 5593 5594 5596 5597 5598 5599 5599
5580 5580 5580 5580 5580 5579 5580 5583 5582 5582 5583 5583 5583 5585 5584 5584 5583 5583 5583 5583 5583 5583 5583 5583 5582 5582 5582 5582 5581 5581 5581 5581 5581 5581 5582 5582 5583 5584 5585 5586 5587 5588 5589 5589
5572 5571 5570 5570 5572 5570 5575 5574 5574 5573 5574 5574 5574 5575 5575 5575 5574 5574 5574 5574 5574 5574 5574 5573 5573 5572 5572 5572 5572 5571 5571 5571 5572 5572 5573 5573 5574 5575 5576 5577 5577 5578 5578 5579
5563 5563 5562 5562 5561 5562 5565 5565 5565 5564 5565 5566 5565 5565 5565 5565 5565 5565 5565 5564 5564 5564 5564 5564 5563 5563 5563 5562 5562 5562 5562 5562 5562 5563 5563 5564 5565 5566 5566 5567 5567 5568 5568 5568
5555 5555 5555 5554 5553 5554 5558 5557 5555 5555 5555 5557 5556 5556 5556 5555 5556 5557 5556 5555 5555 5555 5555 5555 5554 5554 5553 5553 5552 5552 5553 5553 5553 5554 5554 5555 5555 5556 5556 5557 5557 5557 5557 5557
5547 5546 5546 5545 5544 5546 5548 5547 5547 5547 5548 5548 5547 5547 5547 5547 5547 5547 5547 5547 5546 5546 5546 5545 5545 5545 5544 5543 5543 5543 5543 5543 5544 5544 5545 5545 5546 5546 5546 5547 5547 5547 5547 5547
5538 5538 5538 5537 5537 5541 5540 5539 5539 5538 5538 5538 5538 5538 5538 5538 5538 5538 5538 5538 5537 5537 5537 5536 5536 5535 5535 5534 5533 5533 5534 5534 5534 5535 5535 5535 5536 5536 5536 5536 5536 5536 5536 5536
5530 5531 5530 5530 5532 5532 5531 5530 5530 5529 5529 5529 5529 5529 5529 5529 5529 5529 5529 5528 5528 5528 5527 5527 5526 5526 5526 5525 5524 5524 5524 5524 5524 5525 5525 5526 5526 5526 5525 5525 5525 5525 5525 5525
5523 5523 5522 5522 5523 5523 5522 5521 5521 5521 5520 5520 5520 5520 5520 5520 5520 5520 5519 5519 5519 5519 5518 5517 5517 5517 5516 5516 5515 5515 5515 5515 5515 5515 5516 5516 5515 5515 5515 5515 5515 5515 5515 5515
5515 5514 5514 5514 5515 5514 5514 5513 5512 5512 5511 5511 5511 5511 5511 5511 5511 5510 5510 5510 5509 5509 5509 5508 5508 5507 5507 5506 5506 5506 5505 5505 5505 5506 5506 5506 5506 5506 5505 5505 5505 5505 5505 5505
5507 5507 5506 5506 5506 5505 5505 5504 5504 5503 5503 5503 5503 5503 5502 5502 5502 5501 5501 5500 5500 5500 5499 5499 5498 5498 5497 5497 5497 5496 5496 5496 5496 5496 5496 5496 5496 5496 5496 5496 5495 5495 5495 5495